LOT6VT LJLJ-EPWA

Flight info

Callsign LOT6VT
Flight time 1h 16m
Altitude 41000
Route LUPIX2E LUPIX DCT LAPNA DCT ABLOM DCT MEBAN DCT ORTEB DCT KONZI DCT LOGDA
Aircraft E190/M-SDE3GILORVW/S

Departure

Time 2026-04-24 21:36
Airport Ljubljana Jože Pučnik Airport (LJLJ)

Arrival

Time 2026-04-24 22:53
Airport Warsaw Chopin Airport (EPWA)
Time Latitude Longitude Altitude Speed Heading
2026-04-24 21:16 46.22999 14.45468 1264 ft 0 kts 36°
2026-04-24 21:26 46.22998 14.45468 1264 ft 1 kts 36°
2026-04-24 21:26 46.22987 14.45457 1263 ft 0 kts 36°
2026-04-24 21:26 46.22979 14.45448 1263 ft 2 kts 25°
2026-04-24 21:26 46.22964 14.45443 1262 ft 2 kts
2026-04-24 21:27 46.22949 14.45444 1261 ft 2 kts 345°
2026-04-24 21:27 46.22935 14.45453 1260 ft 2 kts 327°
2026-04-24 21:27 46.22925 14.45465 1260 ft 0 kts 310°
2026-04-24 21:27 46.22921 14.45473 1259 ft 1 kts 306°
2026-04-24 21:28 46.22920 14.45475 1259 ft 0 kts 307°
2026-04-24 21:29 46.22919 14.45475 1259 ft 0 kts 308°
2026-04-24 21:30 46.22919 14.45474 1259 ft 0 kts 310°
2026-04-24 21:32 46.22924 14.45466 1260 ft 4 kts 310°
2026-04-24 21:32 46.22963 14.45396 1262 ft 13 kts 307°
2026-04-24 21:32 46.23018 14.45287 1265 ft 12 kts 307°
2026-04-24 21:32 46.23033 14.45189 1266 ft 11 kts 230°
2026-04-24 21:33 46.22970 14.45108 1264 ft 12 kts 250°
2026-04-24 21:33 46.22980 14.45031 1266 ft 11 kts 300°
2026-04-24 21:33 46.23032 14.44929 1269 ft 7 kts 306°
2026-04-24 21:33 46.23066 14.44860 1271 ft 9 kts 308°
2026-04-24 21:34 46.23109 14.44779 1274 ft 11 kts 308°
2026-04-24 21:34 46.23162 14.44678 1277 ft 13 kts 307°
2026-04-24 21:34 46.23223 14.44560 1280 ft 15 kts 306°
2026-04-24 21:34 46.23293 14.44422 1285 ft 18 kts 308°
2026-04-24 21:35 46.23373 14.44270 1288 ft 19 kts 306°
2026-04-24 21:35 46.23371 14.44102 1285 ft 20 kts 217°
2026-04-24 21:35 46.23226 14.44104 1279 ft 22 kts 160°
2026-04-24 21:35 46.23152 14.44231 1277 ft 16 kts 127°
2026-04-24 21:36 46.22936 14.44652 1265 ft 97 kts 126°
2026-04-24 21:36 46.22372 14.45750 1276 ft 168 kts 126°
2026-04-24 21:36 46.21617 14.47157 1988 ft 186 kts 128°
2026-04-24 21:36 46.20807 14.48613 2879 ft 194 kts 129°
2026-04-24 21:37 46.19968 14.50273 3500 ft 216 kts 126°
2026-04-24 21:37 46.19056 14.52115 4242 ft 233 kts 125°
2026-04-24 21:37 46.18337 14.54236 4960 ft 250 kts 100°
2026-04-24 21:37 46.18127 14.56807 5661 ft 268 kts 95°
2026-04-24 21:38 46.17943 14.59531 6549 ft 278 kts 95°
2026-04-24 21:38 46.17746 14.62294 7498 ft 284 kts 95°
2026-04-24 21:38 46.17523 14.65137 8446 ft 288 kts 95°
2026-04-24 21:38 46.17279 14.68016 9335 ft 294 kts 95°
2026-04-24 21:39 46.17004 14.71001 10200 ft 300 kts 95°
2026-04-24 21:39 46.16870 14.73994 11002 ft 301 kts 77°
2026-04-24 21:39 46.17668 14.76702 11656 ft 301 kts 47°
2026-04-24 21:39 46.19279 14.78677 12304 ft 308 kts 39°
2026-04-24 21:40 46.20532 14.81225 12967 ft 323 kts 63°
2026-04-24 21:40 46.21697 14.83927 13722 ft 323 kts 50°
2026-04-24 21:40 46.23057 14.86537 14540 ft 327 kts 52°
2026-04-24 21:40 46.24363 14.89204 15343 ft 330 kts 53°
2026-04-24 21:41 46.25670 14.91940 16118 ft 334 kts 53°
2026-04-24 21:41 46.26980 14.94719 16854 ft 338 kts 53°
2026-04-24 21:41 46.28280 14.97489 17568 ft 343 kts 53°
2026-04-24 21:41 46.29636 15.00386 18304 ft 347 kts 53°
2026-04-24 21:42 46.30994 15.03293 19029 ft 350 kts 53°
2026-04-24 21:42 46.32366 15.06232 19731 ft 354 kts 53°
2026-04-24 21:42 46.33749 15.09201 20419 ft 358 kts 53°
2026-04-24 21:42 46.35165 15.12243 21088 ft 363 kts 53°
2026-04-24 21:43 46.36568 15.15259 21749 ft 366 kts 53°
2026-04-24 21:43 46.37978 15.18294 22406 ft 369 kts 53°
2026-04-24 21:43 46.39418 15.21396 23036 ft 373 kts 54°
2026-04-24 21:43 46.40871 15.24530 23667 ft 377 kts 54°
2026-04-24 21:44 46.42321 15.27663 24300 ft 380 kts 54°
2026-04-24 21:44 46.43813 15.30889 24920 ft 383 kts 54°
2026-04-24 21:44 46.45301 15.34111 25540 ft 386 kts 54°
2026-04-24 21:44 46.46788 15.37334 26127 ft 389 kts 54°
2026-04-24 21:45 46.48283 15.40577 26701 ft 392 kts 54°
2026-04-24 21:45 46.49797 15.43865 27258 ft 396 kts 54°
2026-04-24 21:45 46.51321 15.47180 27821 ft 398 kts 54°
2026-04-24 21:45 46.52927 15.50475 28369 ft 400 kts 47°
2026-04-24 21:46 46.54881 15.53322 28917 ft 400 kts 37°
2026-04-24 21:46 46.57148 15.55657 29449 ft 401 kts 32°
2026-04-24 21:46 46.59465 15.57904 29981 ft 404 kts 32°
2026-04-24 21:46 46.61789 15.60191 30466 ft 408 kts 32°
2026-04-24 21:47 46.64145 15.62522 30939 ft 411 kts 32°
2026-04-24 21:47 46.65692 15.64055 31258 ft 413 kts 32°
2026-04-24 21:47 46.68875 15.67217 31927 ft 416 kts 33°
2026-04-24 21:47 46.71265 15.69593 32470 ft 417 kts 33°
2026-04-24 21:48 46.73618 15.71936 33068 ft 416 kts 33°
2026-04-24 21:48 46.75997 15.74308 33737 ft 413 kts 33°
2026-04-24 21:48 46.78358 15.76662 34389 ft 410 kts 33°
2026-04-24 21:48 46.80687 15.78989 35090 ft 407 kts 32°
2026-04-24 21:49 46.82996 15.81297 35725 ft 406 kts 32°
2026-04-24 21:49 46.85326 15.83631 36337 ft 404 kts 32°
2026-04-24 21:49 46.87616 15.85924 36924 ft 403 kts 32°
2026-04-24 21:49 46.89933 15.88249 37527 ft 402 kts 32°
2026-04-24 21:50 46.92233 15.90559 38084 ft 401 kts 32°
2026-04-24 21:50 46.94505 15.92841 38619 ft 400 kts 32°
2026-04-24 21:50 46.96789 15.95140 39121 ft 400 kts 32°
2026-04-24 21:50 46.99068 15.97436 39602 ft 399 kts 32°
2026-04-24 21:51 47.01344 15.99730 40035 ft 400 kts 32°
2026-04-24 21:51 47.03645 16.02053 40494 ft 399 kts 32°
2026-04-24 21:51 47.05915 16.04347 40886 ft 399 kts 32°
2026-04-24 21:51 47.08166 16.06624 41047 ft 393 kts 32°
2026-04-24 21:52 47.10455 16.08941 41080 ft 401 kts 32°
2026-04-24 21:52 47.15106 16.13658 41091 ft 417 kts 32°
2026-04-24 21:53 47.19932 16.18565 41084 ft 427 kts 31°
2026-04-24 21:53 47.24801 16.23526 41081 ft 426 kts 31°
2026-04-24 21:54 47.29666 16.28494 41080 ft 427 kts 31°
2026-04-24 21:54 47.34521 16.33462 41081 ft 426 kts 31°
2026-04-24 21:55 47.39339 16.38405 41079 ft 424 kts 31°
2026-04-24 21:55 47.44177 16.43379 41078 ft 425 kts 31°
2026-04-24 21:56 47.49025 16.48374 41074 ft 425 kts 31°
2026-04-24 21:56 47.53879 16.53388 41075 ft 427 kts 31°
2026-04-24 21:57 47.58722 16.58402 41071 ft 426 kts 31°
2026-04-24 21:57 47.63555 16.63417 41071 ft 427 kts 31°
2026-04-24 21:58 47.68415 16.68472 41067 ft 427 kts 31°
2026-04-24 21:58 47.73251 16.73512 41068 ft 427 kts 31°
2026-04-24 21:59 47.78084 16.78562 41067 ft 426 kts 31°
2026-04-24 21:59 47.82928 16.83635 41063 ft 426 kts 31°
2026-04-24 22:00 47.87758 16.88706 41064 ft 428 kts 31°
2026-04-24 22:00 47.92634 16.93836 41059 ft 428 kts 31°
2026-04-24 22:01 47.97453 16.98918 41059 ft 428 kts 31°
2026-04-24 22:01 48.02318 17.04061 41059 ft 428 kts 31°
2026-04-24 22:02 48.07026 17.09460 41060 ft 433 kts 40°
2026-04-24 22:02 48.11014 17.16266 41062 ft 436 kts 45°
2026-04-24 22:03 48.14917 17.23152 41060 ft 438 kts 45°
2026-04-24 22:03 48.18840 17.30098 41062 ft 437 kts 45°
2026-04-24 22:04 48.22738 17.37017 41060 ft 437 kts 45°
2026-04-24 22:04 48.26638 17.43957 41057 ft 437 kts 44°
2026-04-24 22:05 48.30529 17.50900 41054 ft 436 kts 44°
2026-04-24 22:05 48.34417 17.57856 41055 ft 437 kts 45°
2026-04-24 22:06 48.38327 17.64869 41052 ft 438 kts 44°
2026-04-24 22:06 48.42211 17.71853 41046 ft 438 kts 45°
2026-04-24 22:07 48.46122 17.78905 41045 ft 438 kts 45°
2026-04-24 22:07 48.50013 17.85939 41036 ft 439 kts 45°
2026-04-24 22:08 48.53906 17.92995 41037 ft 440 kts 45°
2026-04-24 22:08 48.57780 18.00036 41031 ft 439 kts 45°
2026-04-24 22:09 48.61586 18.06970 41031 ft 439 kts 45°
2026-04-24 22:09 48.65483 18.14092 41032 ft 439 kts 45°
2026-04-24 22:10 48.69334 18.21145 41033 ft 438 kts 45°
2026-04-24 22:10 48.73214 18.28271 41037 ft 440 kts 44°
2026-04-24 22:11 48.77088 18.35406 41035 ft 441 kts 44°
2026-04-24 22:11 48.80979 18.42591 41033 ft 440 kts 44°
2026-04-24 22:12 48.84822 18.49707 41033 ft 441 kts 44°
2026-04-24 22:12 48.88701 18.56908 41031 ft 441 kts 44°
2026-04-24 22:13 48.92553 18.64078 41022 ft 442 kts 44°
2026-04-24 22:13 48.96425 18.71307 41021 ft 443 kts 45°
2026-04-24 22:14 49.00293 18.78547 41013 ft 442 kts 45°
2026-04-24 22:14 49.04178 18.85838 41016 ft 443 kts 45°
2026-04-24 22:15 49.08036 18.93098 41025 ft 444 kts 45°
2026-04-24 22:15 49.11907 19.00405 41039 ft 442 kts 45°
2026-04-24 22:16 49.15773 19.07719 41035 ft 443 kts 45°
2026-04-24 22:16 49.19633 19.15045 41034 ft 444 kts 45°
2026-04-24 22:17 49.23481 19.22367 41014 ft 445 kts 45°
2026-04-24 22:17 49.27358 19.29763 41019 ft 446 kts 45°
2026-04-24 22:18 49.31203 19.37122 41013 ft 443 kts 45°
2026-04-24 22:18 49.35064 19.44529 41017 ft 446 kts 45°
2026-04-24 22:19 49.38890 19.51891 41025 ft 445 kts 45°
2026-04-24 22:19 49.42743 19.59325 41018 ft 445 kts 45°
2026-04-24 22:20 49.46746 19.66507 41005 ft 439 kts 36°
2026-04-24 22:20 49.51255 19.72735 41004 ft 440 kts 36°
2026-04-24 22:21 49.55754 19.79052 41018 ft 438 kts 36°
2026-04-24 22:21 49.60241 19.85375 41016 ft 440 kts 36°
2026-04-24 22:22 49.64763 19.91766 41003 ft 439 kts 37°
2026-04-24 22:22 49.69282 19.98169 41014 ft 440 kts 37°
2026-04-24 22:23 49.73768 20.04544 41001 ft 434 kts 37°
2026-04-24 22:23 49.75951 20.07654 40983 ft 421 kts 36°
2026-04-24 22:23 49.78097 20.10712 40994 ft 418 kts 36°
2026-04-24 22:24 49.82378 20.16822 41008 ft 421 kts 36°
2026-04-24 22:24 49.86709 20.23022 40982 ft 423 kts 36°
2026-04-24 22:25 49.91011 20.29198 41002 ft 422 kts 36°
2026-04-24 22:25 49.95343 20.35431 40998 ft 423 kts 36°
2026-04-24 22:26 49.99693 20.41707 41006 ft 424 kts 36°
2026-04-24 22:26 50.04040 20.47993 40228 ft 434 kts 36°
2026-04-24 22:26 50.06244 20.51175 39347 ft 431 kts 34°
2026-04-24 22:27 50.08614 20.53899 38482 ft 419 kts 24°
2026-04-24 22:27 50.11158 20.55853 37634 ft 408 kts 15°
2026-04-24 22:27 50.13829 20.57166 36787 ft 399 kts
2026-04-24 22:27 50.16563 20.57688 35947 ft 390 kts 357°
2026-04-24 22:28 50.19249 20.57922 35108 ft 389 kts 358°
2026-04-24 22:28 50.21930 20.58183 34281 ft 389 kts 358°
2026-04-24 22:28 50.24615 20.58455 33493 ft 391 kts 358°
2026-04-24 22:28 50.27348 20.58735 32700 ft 396 kts 358°
2026-04-24 22:29 50.32821 20.59301 31306 ft 400 kts 358°
2026-04-24 22:29 50.35592 20.59588 30706 ft 399 kts 358°
2026-04-24 22:29 50.38344 20.59874 30252 ft 397 kts 358°
2026-04-24 22:30 50.41096 20.60160 29806 ft 394 kts 358°
2026-04-24 22:30 50.43825 20.60444 29374 ft 392 kts 358°
2026-04-24 22:30 50.46498 20.60722 28942 ft 391 kts 358°
2026-04-24 22:30 50.49205 20.61004 28508 ft 388 kts 358°
2026-04-24 22:31 50.51901 20.61286 28077 ft 387 kts 358°
2026-04-24 22:31 50.54576 20.61565 27650 ft 384 kts 358°
2026-04-24 22:31 50.57235 20.61843 27222 ft 382 kts 358°
2026-04-24 22:31 50.59870 20.62118 26799 ft 381 kts 358°
2026-04-24 22:32 50.62508 20.62394 26376 ft 378 kts 358°
2026-04-24 22:32 50.65120 20.62667 25962 ft 376 kts 358°
2026-04-24 22:32 50.67693 20.62937 25554 ft 374 kts 358°
2026-04-24 22:32 50.70292 20.63209 25141 ft 372 kts 358°
2026-04-24 22:33 50.72877 20.63481 24729 ft 369 kts 358°
2026-04-24 22:33 50.75406 20.63747 24327 ft 368 kts 358°
2026-04-24 22:33 50.77958 20.64015 23919 ft 368 kts 358°
2026-04-24 22:33 50.80487 20.64282 23516 ft 365 kts 358°
2026-04-24 22:34 50.83022 20.64549 23112 ft 364 kts 358°
2026-04-24 22:34 50.85502 20.64811 22715 ft 361 kts 358°
2026-04-24 22:34 50.88014 20.65076 22313 ft 361 kts 359°
2026-04-24 22:34 50.90518 20.65341 21909 ft 359 kts 359°
2026-04-24 22:35 50.92988 20.65603 21512 ft 357 kts 359°
2026-04-24 22:35 50.95466 20.65865 21115 ft 356 kts 359°
2026-04-24 22:35 50.97903 20.66124 20726 ft 354 kts 359°
2026-04-24 22:35 51.00359 20.66385 20332 ft 353 kts 359°
2026-04-24 22:36 51.02815 20.66646 19941 ft 352 kts 359°
2026-04-24 22:36 51.05238 20.66904 19551 ft 351 kts 360°
2026-04-24 22:36 51.07639 20.67160 19164 ft 348 kts 360°
2026-04-24 22:36 51.10021 20.67414 18778 ft 346 kts 360°
2026-04-24 22:37 51.12471 20.67676 18390 ft 345 kts
2026-04-24 22:37 51.14853 20.67930 18015 ft 343 kts
2026-04-24 22:37 51.17239 20.68186 17635 ft 343 kts
2026-04-24 22:37 51.19636 20.68443 17245 ft 341 kts
2026-04-24 22:38 51.22001 20.68697 16864 ft 340 kts
2026-04-24 22:38 51.24330 20.68947 16493 ft 338 kts
2026-04-24 22:38 51.26682 20.69199 16118 ft 337 kts
2026-04-24 22:38 51.29003 20.69800 15745 ft 341 kts 15°
2026-04-24 22:39 51.31231 20.71171 15406 ft 341 kts 17°
2026-04-24 22:39 51.33421 20.72562 15027 ft 339 kts 18°
2026-04-24 22:39 51.35632 20.73972 14652 ft 337 kts 18°
2026-04-24 22:39 51.37807 20.75361 14271 ft 336 kts 18°
2026-04-24 22:40 51.39983 20.76753 13901 ft 334 kts 18°
2026-04-24 22:40 51.42131 20.78130 13539 ft 333 kts 18°
2026-04-24 22:40 51.44292 20.79515 13162 ft 332 kts 18°
2026-04-24 22:40 51.46421 20.80882 12801 ft 330 kts 18°
2026-04-24 22:41 51.48534 20.82240 12435 ft 329 kts 18°
2026-04-24 22:41 51.50676 20.83618 12062 ft 327 kts 18°
2026-04-24 22:41 51.52766 20.84963 11719 ft 323 kts 18°
2026-04-24 22:41 51.54827 20.86292 11392 ft 317 kts 18°
2026-04-24 22:42 51.56873 20.87612 11037 ft 310 kts 18°
2026-04-24 22:42 51.58833 20.88878 10700 ft 302 kts 18°
2026-04-24 22:42 51.60761 20.90124 10373 ft 294 kts 18°
2026-04-24 22:42 51.62636 20.91337 10048 ft 287 kts 18°
2026-04-24 22:43 51.64467 20.92522 9731 ft 282 kts 18°
2026-04-24 22:43 51.66268 20.93689 9424 ft 279 kts 18°
2026-04-24 22:43 51.68080 20.94863 9115 ft 279 kts 18°
2026-04-24 22:43 51.69895 20.96041 8804 ft 278 kts 18°
2026-04-24 22:44 51.71693 20.97209 8493 ft 278 kts 18°
2026-04-24 22:44 51.73466 20.98362 8187 ft 276 kts 18°
2026-04-24 22:44 51.75238 20.99516 7880 ft 275 kts 18°
2026-04-24 22:44 51.77021 21.00677 7570 ft 274 kts 18°
2026-04-24 22:45 51.78759 21.01810 7275 ft 273 kts 18°
2026-04-24 22:45 51.80521 21.02960 6968 ft 272 kts 18°
2026-04-24 22:45 51.82264 21.04098 6661 ft 271 kts 18°
2026-04-24 22:45 51.83998 21.05231 6353 ft 270 kts 18°
2026-04-24 22:46 51.85718 21.06357 6067 ft 268 kts 18°
2026-04-24 22:46 51.87442 21.07485 5764 ft 267 kts 17°
2026-04-24 22:46 51.89148 21.08602 5481 ft 265 kts 18°
2026-04-24 22:46 51.90869 21.09733 5198 ft 264 kts 18°
2026-04-24 22:47 51.92556 21.10836 4909 ft 265 kts 18°
2026-04-24 22:47 51.94257 21.11956 4601 ft 260 kts 18°
2026-04-24 22:47 51.95893 21.13011 4311 ft 250 kts 12°
2026-04-24 22:47 51.97528 21.12982 4059 ft 229 kts 339°
2026-04-24 22:48 51.98958 21.12030 3849 ft 218 kts 329°
2026-04-24 22:48 52.00264 21.10868 3634 ft 210 kts 329°
2026-04-24 22:48 52.01510 21.09780 3419 ft 202 kts 329°
2026-04-24 22:48 52.02749 21.08704 3188 ft 198 kts 329°
2026-04-24 22:49 52.03924 21.07688 2981 ft 189 kts 329°
2026-04-24 22:49 52.05069 21.06697 2718 ft 183 kts 329°
2026-04-24 22:49 52.06167 21.05747 2461 ft 177 kts 329°
2026-04-24 22:49 52.07244 21.04814 2212 ft 172 kts 328°
2026-04-24 22:50 52.08275 21.03921 1992 ft 163 kts 328°
2026-04-24 22:50 52.09216 21.03106 1754 ft 145 kts 328°
2026-04-24 22:50 52.10095 21.02342 1557 ft 142 kts 328°
2026-04-24 22:50 52.10963 21.01593 1405 ft 135 kts 328°
2026-04-24 22:51 52.11731 21.00927 1198 ft 119 kts 327°
2026-04-24 22:51 52.12453 21.00294 947 ft 117 kts 329°
2026-04-24 22:51 52.13186 20.99693 723 ft 119 kts 325°
2026-04-24 22:51 52.13898 20.99007 672 ft 120 kts 326°
2026-04-24 22:52 52.14666 20.98375 503 ft 124 kts 329°
2026-04-24 22:52 52.15423 20.97719 384 ft 125 kts 328°
2026-04-24 22:52 52.16141 20.97082 337 ft 104 kts 335°
2026-04-24 22:52 52.16649 20.96645 330 ft 56 kts 332°
2026-04-24 22:53 52.16921 20.96515 331 ft 30 kts
2026-04-24 22:53 52.17056 20.96525 332 ft 15 kts 27°
2026-04-24 22:53 52.17118 20.96662 332 ft 15 kts 61°
2026-04-24 22:53 52.17179 20.96805 333 ft 14 kts 22°
2026-04-24 22:54 52.17236 20.96732 333 ft 10 kts 248°
2026-04-24 22:54 52.17194 20.96678 333 ft 0 kts 206°